FW1302 Weather Reports


time (UTC)temp
C
wind
direction
speed
KPH
gust
KPH
rain 1hr
cm
rain 24hr
cm
rain mn
cm
humidity
%
barometer
mb
20260503212509 22 45 17.7 22.5 0.00 0.00 0.00 45 1019.4
20260503211507 20 45 16.1 22.5 0.00 0.00 0.00 54 1019.6
20260503205608 19 45 20.9 27.4 0.00 0.00 0.00 57 1019.9
20260503203707 20 45 19.3 22.5 0.00 0.00 0.00 54 1020.1
20260503202708 20 45 22.5 24.1 0.00 0.00 0.00 52 1020.2
20260503195709 20 45 20.9 25.7 0.00 0.00 0.00 49 1020.6
20260503193807 21 45 24.1 33.8 0.00 0.00 0.00 49 1020.7
20260503192810 21 42 17.7 29.0 0.00 0.00 0.00 49 1020.9
20260503191808 21 46 19.3 25.7 0.00 0.00 0.00 47 1021.0
20260503190810 21 45 12.9 20.9 0.00 0.00 0.00 50 1021.4
20260503185908 21 45 17.7 25.7 0.00 0.00 0.00 50 1021.4
20260503183909 21 49 14.5 29.0 0.00 0.00 0.00 51 1021.4
20260503183008 21 43 12.9 24.1 0.00 0.00 0.00 50 1021.7
20260503182009 21 50 9.7 14.5 0.00 0.00 0.00 52 1022.0
20260503181108 21 72 8.0 17.7 0.00 0.00 0.00 53 1021.9
20260503180109 20 46 14.5 24.1 0.00 0.00 0.00 53 1022.2
20260503175109 20 41 16.1 25.7 0.00 0.00 0.00 55 1022.2
20260503174207 20 45 14.5 20.9 0.00 0.00 0.00 55 1022.3
20260503173208 19 45 16.1 25.7 0.00 0.00 0.00 58 1022.4
20260503172207 18 48 14.5 24.1 0.00 0.00 0.00 57 1022.5
20260503171208 18 45 20.9 30.6 0.00 0.00 0.00 57 1022.4
20260503170208 18 49 16.1 22.5 0.00 0.00 0.00 58 1022.8
20260503160210 15 37 9.7 16.1 0.00 0.00 0.00 69 1023.4
20260503150409 15 45 16.1 22.5 0.00 0.00 0.00 72 1023.5
20260503130808 11 45 0.0 3.2 0.00 0.00 0.00 92 1023.4
20260503080107 13 180 0.0 0.0 0.00 0.00 0.00 92 1023.8
20260503072307 13 180 0.0 0.0 0.00 0.00 0.00 91 1023.9
20260503070308 13 225 0.0 0.0 0.00 0.00 0.00 90 1023.7
20260503060118 15 112 0.0 0.0 0.00 0.00 0.00 86 1023.7
20260503055119 15 118 0.0 6.4 0.00 0.00 0.00 86 1023.8
20260503054117 15 270 0.0 0.0 0.00 0.00 0.00 86 1024.0
20260503053117 15 270 0.0 0.0 0.00 0.00 0.00 86 1023.9
20260503052117 15 270 0.0 0.0 0.00 0.00 0.00 84 1024.0
20260503050118 15 45 0.0 1.6 0.00 0.00 0.00 83 1024.0
20260503044219 16 32 6.4 9.7 0.00 0.00 0.00 80 1024.0
20260503043316 16 45 0.0 0.0 0.00 0.00 0.00 80 1023.7
20260503042319 16 45 1.6 3.2 0.00 0.00 0.00 78 1023.9
20260503041318 17 12 1.6 3.2 0.00 0.00 0.00 76 1023.8
20260503040416 17 225 0.0 0.0 0.00 0.00 0.00 74 1023.6
20260503035419 18 225 0.0 0.0 0.00 0.00 0.00 72 1023.5
20260503034419 18 270 0.0 1.6 0.00 0.00 0.00 70 1023.3
20260503033418 18 247 4.8 8.0 0.00 0.00 0.00 70 1023.0
20260503032420 18 225 4.8 6.4 0.00 0.00 0.00 68 1022.7
20260503031517 19 248 6.4 6.4 0.00 0.00 0.00 69 1022.4
20260503025518 18 232 6.4 8.0 0.00 0.00 0.00 68 1022.4
20260503023518 19 225 6.4 8.0 0.00 0.00 0.00 68 1022.0
20260503022519 19 225 8.0 9.7 0.00 0.00 0.00 67 1021.9
20260503021418 19 225 6.4 8.0 0.00 0.00 0.00 66 1021.7
20260503020416 20 225 9.7 11.3 0.00 0.00 0.00 64 1021.7
20260503020317 20 225 8.0 11.3 0.00 0.00 0.00 65 1021.7
20260503015318 20 224 6.4 11.3 0.00 0.00 0.00 64 1021.6
20260503014318 20 220 9.7 16.1 0.00 0.00 0.00 64 1021.5
20260503012317 20 205 6.4 14.5 0.00 0.00 0.00 62 1021.4
20260503011317 20 228 6.4 11.3 0.00 0.00 0.00 63 1021.5
20260503010317 20 216 12.9 22.5 0.00 0.00 0.00 63 1021.6
20260503005318 20 215 12.9 19.3 0.00 0.00 0.00 62 1021.4
20260503005217 20 208 17.7 25.7 0.00 0.00 0.00 63 1021.5
20260503002218 20 225 12.9 17.7 0.00 0.00 0.00 63 1021.4
20260503001217 20 216 8.0 14.5 0.00 0.00 0.00 63 1021.4
20260503000318 20 225 11.3 14.5 0.00 0.00 0.00 61 1021.4
20260502235320 20 229 11.3 14.5 0.00 0.00 0.00 59 1021.4
20260502234319 21 225 12.9 14.5 0.00 0.00 0.00 58 1021.4
20260502233417 21 216 6.4 12.9 0.00 0.00 0.00 57 1021.5
20260502232417 21 225 8.0 9.7 0.00 0.00 0.00 58 1021.6
20260502230418 20 232 6.4 8.0 0.00 0.00 0.00 60 1022.2
20260502225517 20 205 6.4 11.3 0.00 0.00 0.00 61 1022.2
20260502223518 18 243 8.0 9.7 0.00 0.00 0.00 65 1022.6
20260502222617 18 227 6.4 8.0 0.00 0.00 0.00 66 1022.8
20260502220618 17 246 11.3 12.9 0.00 0.00 0.00 68 1023.3
20260502220517 17 242 9.7 11.3 0.00 0.00 0.00 67 1023.3
20260502215616 17 225 9.7 14.5 0.00 0.00 0.00 68 1023.5
20260502214618 17 215 11.3 17.7 0.00 0.00 0.00 69 1023.7
20260502213618 16 210 11.3 20.9 0.00 0.00 0.00 70 1023.8
20260502213519 16 224 14.5 20.9 0.00 0.00 0.00 69 1023.9